Location: Newark
(59.4564°N, 26.6917°E)
Time: 11:06:13
(UTC+00:00)

SR - Pass Details

Date: 27 November 2019
Orbit: 573 x 882 km, 66.7° (Epoch: 12 December)

Event Time Altitude Azimuth Distance (km) Brightness Sun altitude
Rises 20:53:24 0° 309° (NW) 3,494 ? -49.9°
Enters shadow 20:55:01 - 302° (WNW) 3,029 ? -50.0°
Reaches altitude 10° 20:57:03 10° 288° (WNW) 2,547 - -50.1°
Maximum altitude 21:00:08 15° 256° (WSW) 2,207 - -50.2°
Drops below altitude 10° 21:03:12 10° 224° (SW) 2,500 - -50.4°
Sets 21:06:44 0° 202° (SSW) 3,389 - -50.5°
